Location: Amberg
(48.3597°N, 14.2150°E)
Time: 05:59:25
(UTC+00:00)

Daily predictions for brighter satellites

Satellite Brightness Start Highest point End
(mag) Time Altitude Azimuth Time Altitude Azimuth Time Altitude Azimuth
USA 234 3.8 01:51:49 10° NE 01:56:38 51° NE 01:56:38 51° NE
ADEOS Rocket 4.2 02:00:34 10° SE 02:05:27 34° ENE 02:10:29 10° N
IDEFIX/ARIANE 42P 4.4 02:04:46 10° NNE 02:06:55 25° NNE 02:06:55 25° NNE
Cosmos 1656 4.2 02:31:47 57° E 02:31:47 57° E 02:36:35 10° SE
Lacrosse 4 Rocket 3.4 02:36:56 26° ENE 02:36:56 26° ENE 02:39:10 10° NE
NOSS 3-2 (C) 3.5 02:38:52 66° SE 02:38:58 66° SE 02:45:26 10° NE
CZ-4B R/B 4.1 02:43:49 10° ESE 02:46:22 20° ENE 02:47:06 18° NE
Cosmos 2344 3.4 02:47:18 66° WSW 02:48:31 84° NW 02:56:44 10° NE
CENTAUR R/B 2.5 02:49:21 67° S 02:50:09 76° SE 02:57:16 10° NE
Cosmos 2142 Rocket 4.4 02:44:18 10° N 02:54:54 21° S 02:56:52 10° S
COSMOS 2406 4.1 02:49:38 29° SSE 02:52:03 47° ESE 02:57:28 10° NE
Cosmos 1697 Rocket 3.3 02:49:21 24° NNW 02:52:37 54° ENE 02:58:10 10° SE
Lacrosse 5 rocket 3.2 02:55:14 23° ESE 02:55:14 23° ESE 02:57:39 10° ENE
ALOS 4.4 02:53:06 10° NE 02:57:01 26° E 03:00:54 10° SSE
CZ-3B R/B 3.8 02:59:50 46° WNW 03:02:26 89° SSW 03:32:38 10° SE
ARIANE 5 R/B 4.2 02:58:58 10° N 03:00:44 20° N 03:00:44 20° N
ADEOS II 4.3 03:01:51 10° NNW 03:02:26 12° NNW 03:02:26 12° NNW
Cosmos 2279 Rocket 3.9 03:07:56 10° NNW 03:14:04 64° W 03:20:09 10° S
Cosmos 1980 Rocket 3.2 03:09:28 10° NNW 03:14:51 45° NE 03:20:12 10° SE
CZ-2C R/B 2.3 03:11:47 10° NNE 03:16:50 87° E 03:18:24 45° SSW
ISS -2.2 03:21:42 31° SE 03:21:42 31° SE 03:24:24 10° E
USA 238 DEB 3.8 03:24:05 46° W 03:25:43 56° NW 03:32:36 10° NE
USA 238 3.8 03:24:10 46° W 03:25:49 57° NW 03:32:42 10° NE
ERS-2 2.5 03:23:09 10° SSE 03:26:06 56° SSE 03:26:06 56° SSE
Cosmos 2360 4.3 03:23:58 13° NNW 03:29:07 78° ENE 03:34:49 10° SSE
NOSS 3-2 (A) 3.7 03:28:10 43° WNW 03:29:21 48° NW 03:35:55 10° NE
MSX 4.2 03:24:09 10° N 03:29:27 42° WNW 03:29:27 42° WNW
Cosmos 1536 Rocket 3.8 03:30:13 53° NW 03:30:13 53° NW 03:34:02 10° N
PAYLOAD A 3.9 03:27:11 10° N 03:32:13 64° WNW 03:34:02 39° SW
ATLAS 3B R/B 3.2 03:31:01 10° SSW 03:37:22 55° ESE 03:43:50 10° NE
KORONAS-FOTON 4.5 03:38:52 41° NNW 03:38:52 41° NNW 03:41:41 10° N
Cosmos 1302 Rocket 4.2 03:37:27 46° W 03:38:01 48° WSW 03:43:04 10° S
ADEOS 3.9 03:33:45 10° NNE 03:38:58 67° ESE 03:44:09 10° S
CREW DRAGON DEMO-1 DEB 3.7 03:39:57 44° NE 03:39:57 44° NE 03:42:31 10° E
USA 234 3.9 03:34:46 10° ENE 03:40:54 44° N 03:43:58 27° WNW
Cosmos 2278 3.9 03:37:36 10° NNW 03:43:17 72° ENE 03:48:55 10° SE
Cosmos 1269 Rocket 4.1 03:42:33 40° WSW 03:44:07 54° WNW 03:49:21 10° NNE
Geosat 3.9 03:40:10 10° SSE 03:45:08 62° WSW 03:48:27 21° NW
Cosmos 2322 Rocket 4.2 03:41:04 10° N 03:45:41 24° NE 03:50:15 10° E
SL-14 R/B 3.5 03:45:02 10° S 03:48:59 72° E 03:53:00 10° NNE
IDEFIX/ARIANE 42P 4.1 03:45:18 10° NNW 03:47:43 19° NW 03:47:43 19° NW
Cosmos 1300 2.8 03:46:13 10° N 03:50:03 73° E 03:53:52 10° SSE
PSLV R/B 3.8 03:46:29 10° N 03:50:34 43° WNW 03:50:53 43° W
ADEOS Rocket 3.1 03:45:53 10° SSW 03:50:59 39° W 03:56:13 10° NNW
Cosmos 1833 Rocket 2.6 03:48:51 14° SSW 03:53:49 80° WNW 03:59:31 10° NNE
Cosmos 1461 3.4 03:51:12 15° SSW 03:54:54 69° SE 03:59:37 10° NE
Cosmos 1674 3.9 03:59:39 25° NW 03:59:39 25° NW 04:01:49 10° N
SKYMED 2 3.9 03:55:18 10° SSE 03:59:36 67° ENE 04:03:56 10° N
Cosmos 1626 2.0 03:59:39 10° SSW 04:03:18 62° W 04:07:00 10° N
Meteor 1-24 Rocket 3.8 04:00:31 10° S 04:06:08 85° ESE 04:12:01 10° NNE
METEOR-M 4.1 04:00:46 10° NNE 04:06:09 87° ESE 04:11:30 10° SSW
Cosmos 1484 Rocket 2.6 04:02:41 10° N 04:06:33 67° WNW 04:10:19 10° SSW
Cosmos 2369 3.8 04:01:11 10° NW 04:06:42 54° WSW 04:12:10 10° S
Lacrosse 4 Rocket 2.2 04:13:16 27° WNW 04:14:12 30° NW 04:17:49 10° NNE
PSLV R/B 4.0 04:10:16 10° SSE 04:14:28 83° ENE 04:18:43 10° NNW
Cosmos 2082 Rocket 2.2 04:08:54 10° SSW 04:14:31 87° ESE 04:20:11 10° NNE
ARGOS Delta rocket 4.2 04:10:20 10° NNE 04:15:45 89° ESE 04:21:15 10° SSW
Cosmos 1992 Rocket 4.1 04:12:41 10° NNW 04:17:45 52° WSW 04:22:47 10° S
deb Kosmos-1763 4.0 04:14:51 14° SW 04:17:46 56° WNW 04:21:19 10° NNE
CZ-4B R/B 2.1 04:15:17 10° SSW 04:18:26 32° W 04:20:14 20° NW
SL-16 R/B 3.3 04:16:04 10° NNW 04:21:32 46° NE 04:26:58 10° SE
Cosmos 1092 Rocket 3.9 04:16:01 10° SSW 04:22:11 72° W 04:28:26 10° N
Cosmos 1726 Rocket 3.7 04:18:43 10° NNW 04:23:04 53° W 04:27:23 10° S
CZ-4B R/B 3.0 04:20:44 10° NNE 04:24:45 80° ESE 04:28:57 10° S
Meteor PRIRODA 3.9 04:22:27 10° NNE 04:26:06 72° ESE 04:29:45 10° S
Abrixas rocket 2.5 04:25:26 27° WSW 04:26:30 40° SSW 04:29:12 10° SE
Nadezhda 4 Rocket 4.3 04:21:56 10° SW 04:27:41 42° WNW 04:33:31 10° N
CZ-3 R/B 4.2 04:10:45 10° WSW 04:27:58 27° SSW 04:34:39 10° SE
Meteor 2-13 Rocket 4.5 04:23:36 10° SSW 04:29:38 57° WNW 04:35:42 10° N
NOSS 3-2 (C) 4.2 04:26:20 18° W 04:30:20 37° NNW 04:36:42 10° NE
Meteor 1-31 Rocket 3.0 04:27:04 10° N 04:30:54 49° WNW 04:34:42 10° SSW
MOS 1 Rocket 4.4 04:28:00 10° SE 04:32:02 42° ENE 04:36:07 10° N
Cosmos 2228 3.7 04:28:10 10° NNW 04:32:04 32° W 04:35:58 10° SSW
Lacrosse 5 rocket 1.2 04:30:54 18° WSW 04:33:28 57° NNW 04:37:15 10° NE
Meteor 2-5 Rocket 4.0 04:28:12 10° SSW 04:33:42 48° WNW 04:39:22 10° N
ALOS 2.6 04:30:11 10° N 04:34:34 41° WNW 04:38:56 10° SW
Cosmos 1697 Rocket 3.5 04:31:33 10° NW 04:36:17 28° WSW 04:41:00 10° SSW
COSMOS 2406 3.9 04:31:47 12° WSW 04:36:31 35° NW 04:41:42 10° NNE
Cosmos 1606 Rocket 4.3 04:34:27 10° NNW 04:38:22 30° W 04:42:17 10° SSW
Cosmos 1455 3.1 04:35:04 10° N 04:38:52 54° ENE 04:42:40 10° SSE
CENTAUR R/B 3.4 04:36:34 14° W 04:41:32 37° NNW 04:48:26 10° NE
S3M 4.5 04:35:50 10° N 04:42:06 68° ENE 04:48:26 10° SSE
Cosmos 1689 Rocket 2.7 04:40:39 10° SSW 04:43:20 32° W 04:46:02 10° NNW
ATLAS CENTAUR R/B 4.0 04:40:50 10° SSE 04:43:50 21° ESE 04:46:46 10° ENE
Cosmos 2251 Rocket 3.6 04:39:57 10° SW 04:45:12 56° WNW 04:50:29 10° NNE
FENGYUN 3A 4.1 04:41:39 10° N 04:46:40 39° WNW 04:51:39 10° SW
Cosmos 614 Rocket 4.0 04:42:00 10° SSW 04:47:09 85° ESE 04:52:18 10° NNE
Cosmos 2360 Rocket 3.7 04:42:09 10° NNW 04:47:18 35° NE 04:52:25 10° ESE
COSMO-SKYMED 1 3.0 04:43:38 10° S 04:47:44 41° W 04:51:52 10° NNW
YAOGAN 6 4.1 04:48:22 10° NNE 04:51:55 42° E 04:55:24 10° S
CZ-2C R/B 4.0 04:51:24 10° NNW 04:54:20 16° NW 04:57:14 10° W
ISS -3.7 04:54:40 10° W 04:58:01 66° NNW 05:01:23 10° ENE
USA 290 3.2 04:55:26 10° WSW 04:58:16 28° WNW 05:01:08 10° N
Cosmos 1980 Rocket 2.8 04:53:44 10° NW 04:58:43 34° WSW 05:03:40 10° SSW
Cosmos 1400 Rocket 3.9 04:58:47 10° NW 05:01:55 23° W 05:05:00 10° SW
Cosmos 2292 Rocket 3.4 04:59:36 10° S 05:02:41 67° E 05:06:29 10° NNE
CZ-2C R/B 3.8 05:01:20 10° SE 05:06:41 49° ENE 05:12:06 10° N
Cosmos 1190 Rocket 4.4 05:03:01 10° SSW 05:08:13 70° ESE 05:13:26 10° NNE
Okean 1-7 Rocket 4.1 05:05:29 10° SW 05:09:44 39° WNW 05:14:00 10° N
Cosmos 2058 Rocket 4.0 05:06:42 10° NNW 05:10:34 28° W 05:14:23 10° SSW
Cosmos 1553 Rocket 4.1 05:06:02 10° NNW 05:12:01 55° W 05:17:54 10° SSW
BREEZE-M DEB (TANK) 4.2 05:11:06 10° W 05:25:15 84° N 05:29:02 10° E
